Regional Weather Roundup
Issued by NWS

Home | Current Version | Previous Version | Text Only | Print | Product List | Glossary Off
Versions: 1 2 3 4 5 6 7 8 9 10 11 12 13 14 15 16 17 18 19 20 21 22 23 24 25 26 27

000
ASUS45 KCYS 170410
RWRWY

WYOMING REGIONAL WEATHER ROUNDUP
NATIONAL WEATHER SERVICE CHEYENNE WY
900 PM MST MON JAN 16 2017

NOTE:  "FAIR" INDICATES FEW OR NO CLOUDS BELOW 12,000 FEET
WITH NO SIGNIFICANT WEATHER AND/OR OBSTRUCTIONS TO VISIBILITY.

WYZ001-170500-
YELLOWSTONE NATIONAL PARK

CITY           SKY/WX    TMP DP  RH WIND       PRES   REMARKS
LK YELLOWSTONE   N/A     -7 -10  87 CALM      30.18S
W YELLOWSTONE  NOT AVBL

$$
WYZ002>013-054>058-071-098>099-170500-
NORTHERN WYOMING

CITY           SKY/WX    TMP DP  RH WIND       PRES   REMARKS
JACKSON        FAIR     -11 -13  92 N6        30.22S WCI -25
CODY           FAIR      12   4  70 S3        30.06S
GREYBULL       FAIR     -12 -17  78 NW5       30.14S WCI -24
WORLAND        FAIR      -3  -5  90 CALM      30.11F
SHERIDAN       FAIR      11   3  70 VRB6      30.05R WCI   1
BUFFALO        FAIR      28   7  41 S12       30.02F WCI  18
GILLETTE       FAIR      18   8  65 S8        30.06R WCI   8
HULETT         FAIR      21  10  63 SW7       30.07R WCI  13
NEWCASTLE      FAIR      19  10  68 N5        30.08F WCI  13

$$
WYZ014>020-022>026-101>103-170500-
CENTRAL WYOMING

CITY           SKY/WX    TMP DP  RH WIND       PRES   REMARKS
BIG PINEY      FAIR     -11 -15  82 CALM      30.17R
PINEDALE       FAIR     -17 -22  76 CALM      30.17S
DUBOIS         NOT AVBL
LANDER         FAIR       5   1  83 NW3       30.10S
RIVERTON       FAIR      -1  -5  82 W6        30.11F WCI -13
CASPER         FAIR      24   9  52 SW13      30.09S WCI  12
DOUGLAS        FAIR      16  10  77 S3        30.09F

$$
WYZ021-027>030-104>119-170500-
SOUTHERN WYOMING

CITY           SKY/WX    TMP DP  RH WIND       PRES   REMARKS
EVANSTON       FAIR       9   2  73 S5        30.16S WCI   1
ROCK SPRINGS   FAIR      -2  -6  83 SW7       30.17S FOG     WCI -15
RAWLINS        FAIR      -2  -8  76 CALM      30.13F
LARAMIE        FAIR       9   6  88 S8        30.09F WCI  -3
CHEYENNE       FAIR      21  12  68 W7        30.09S WCI  12
TORRINGTON     FAIR      22  14  71 W3        30.10S

$$




USA.gov is the U.S. government's official web portal to all federal, state and local government web resources and services.